This demonstration page uses our WeatherBlox Daily Observations layout. Learn more.

Left ArrowRight Arrow

34.74481, -87.66753

Hourly Observations for May 8, 2022

Temp ( °F °C ) Dew Point ( °F °C ) Humidity (%) Winds ( mph kmh ) Pressure ( in mb ) Visibility ( mi km ) Precip ( " mm )
12:53 am 00:53 Partly Cloudy 54 12.2 51 10.6 90 90 Calm 29.88 1012 8 13 0.00 0.00
1:44 am 01:44 Clear with Mist and Fog 52 11.1 50 10 93 93 Calm 29.89 1012 2 3 0.00 0.00
1:53 am 01:53 Clear with Mist and Fog 51 10.6 49 9.4 92 92 Calm 29.87 1012 3 5 0.00 0.00
2:01 am 02:01 Clear with Mist and Fog 51 10.6 49 9.4 92 92 Calm 29.89 1012 1 2 0.00 0.00
2:09 am 02:09 Clear with Fog 50 10 49 9.4 96 96 Calm 29.89 1012 1 1 0.00 0.00
2:23 am 02:23 Clear with Mist and Fog 51 10.6 49 9.4 92 92 Calm 29.89 1012 2 3 0.00 0.00
2:30 am 02:30 Clear with Mist and Fog 51 10.6 49 9.4 92 92 Calm 29.89 1012 6 10 0.00 0.00
2:53 am 02:53 Clear with Mist and Fog 50 10 49 9.4 96 96 Calm 29.87 1012 5 8 0.00 0.00
3:12 am 03:12 Clear with Mist and Fog 50 10 48 8.9 93 93 Calm 29.89 1012 2 3 0.00 0.00
3:20 am 03:20 Clear with Fog 49 9.4 48 8.9 97 97 Calm 29.89 1012 1 1 0.00 0.00
3:25 am 03:25 Mostly Cloudy with Fog 49 9.4 48 8.9 97 97 Calm 29.89 1012 0 0 0.00 0.00
3:53 am 03:53 Mostly Cloudy with Fog 49 9.4 48 8.9 97 97 Calm 29.87 1012 0 0 0.00 0.00
4:11 am 04:11 Mostly Cloudy with Fog 49 9.4 48 8.9 97 97 Calm 29.89 1012 1 1 0.00 0.00
4:19 am 04:19 Mostly Cloudy with Fog 49 9.4 48 8.9 97 97 Calm 29.89 1012 0 0 0.00 0.00
4:25 am 04:25 Mostly Cloudy with Mist and Fog 49 9.4 48 8.9 97 97 Calm 29.89 1012 1 2 0.00 0.00
4:31 am 04:31 Partly Cloudy with Mist and Fog 49 9.4 47 8.3 93 93 Calm 29.89 1012 3 5 0.00 0.00
4:35 am 04:35 Partly Cloudy with Mist and Fog 49 9.4 48 8.9 97 97 Calm 29.89 1012 2 2 0.00 0.00
4:41 am 04:41 Mostly Cloudy with Mist and Fog 48 8.9 47 8.3 96 96 Calm 29.89 1012 1 1 0.00 0.00
4:45 am 04:45 Mostly Clear with Mist and Fog 49 9.4 47 8.3 93 93 Calm 29.89 1012 1 2 0.00 0.00
4:51 am 04:51 Clear with Mist and Fog 48 9 46 8 94 94 NE 3 6 29.89 1012 3 5 0.00 0.00
4:53 am 04:53 Clear with Mist and Fog 49 9.4 47 8.3 93 93 NE 5 7 29.88 1012 4 6 0.00 0.00
5:30 am 05:30 Clear with Mist and Fog 50 10 48 8.9 93 93 Calm 29.90 1012 2 3 0.00 0.00
5:53 am 05:53 Sunny with Mist and Fog 48 8.9 46 7.8 93 93 Calm 29.89 1012 5 8 0.00 0.00
6:53 am 06:53 Sunny with Mist and Fog 53 11.7 51 10.6 93 93 Calm 29.91 1013 5 8 0.00 0.00
7:27 am 07:27 Mostly Cloudy 56 13.3 52 11.1 87 87 ENE 3 6 29.94 1014 8 13 0.00 0.00
7:53 am 07:53 Cloudy 57 13.9 53 11.7 87 87 ENE 5 7 29.94 1014 10 16 0.00 0.00
8:18 am 08:18 Mostly Sunny 59 15 53 11.7 81 81 NE 3 6 29.95 1014 10 16 0.00 0.00
8:53 am 08:53 Partly Cloudy 61 16.1 52 11.1 72 72 ESE 9 15 29.95 1014 10 16 0.00 0.00
9:48 am 09:48 Mostly Cloudy 64 18 54 12 68 68 VRB 7 11 29.94 1014 10 16 0.00 0.00
9:53 am 09:53 Mostly Cloudy 64 17.8 52 11.1 65 65 ESE 8 13 29.94 1014 10 16 0.00 0.00
10:45 am 10:45 Partly Cloudy 64 17.8 52 11.1 65 65 ENE 7 11 29.94 1014 10 16 0.00 0.00
10:53 am 10:53 Partly Cloudy 66 18.9 53 11.7 63 63 E 8 13 29.93 1014 10 16 0.00 0.00
11:07 am 11:07 Mostly Cloudy 66 18.9 53 11.7 63 63 E 5 7 29.94 1014 10 16 0.00 0.00
11:24 am 11:24 Partly Cloudy 67 19.4 53 11.7 61 61 E 10 17 29.93 1014 10 16 0.00 0.00
11:53 am 11:53 Partly Cloudy 68 20 54 12.2 61 61 undefined N/A 29.92 1013 10 16 0.00 0.00
12:53 pm 12:53 Sunny 70 21.1 55 12.8 59 59 VRB 3 6 29.91 1013 10 16 0.00 0.00
1:53 pm 13:53 Sunny 71 21.7 53 11.7 53 53 ESE 5 7 29.90 1013 10 16 0.00 0.00
2:53 pm 14:53 Sunny 73 22.8 55 12.8 53 53 Calm 29.88 1012 10 16 0.00 0.00
3:53 pm 15:53 Sunny 74 23.3 52 11.1 46 46 Calm 29.87 1012 10 16 0.00 0.00
4:53 pm 16:53 Sunny 74 23.3 55 12.8 52 52 E 6 9 29.86 1011 10 16 0.00 0.00
5:53 pm 17:53 Sunny 74 23.3 57 13.9 56 56 E 8 13 29.86 1011 10 16 0.00 0.00
6:53 pm 18:53 Sunny 72 22.2 56 13.3 57 57 E 6 9 29.86 1011 10 16 0.00 0.00
7:53 pm 19:53 Clear 66 18.9 56 13.3 70 70 E 5 7 29.86 1011 10 16 0.00 0.00
8:53 pm 20:53 Clear 64 17.8 56 13.3 75 75 E 6 9 29.88 1012 10 16 0.00 0.00
9:53 pm 21:53 Clear 65 18.3 56 13.3 73 73 SE 6 9 29.90 1013 10 16 0.00 0.00
10:53 pm 22:53 Clear 66 18.9 56 13.3 70 70 SE 9 15 29.91 1013 10 16 0.00 0.00
11:53 pm 23:53 Clear 65 18.3 55 12.8 70 70 SE 10 17 29.90 1013 10 16 0.00 0.00

Powered by AerisWeather